Location: Unspecified
(40.7945°N, 0.0000°E)
Time: 21:44:52
(UTC+00:00)

Explorer 11/Cluster Stage 4 - Pass Details

Date: 27 January 2021
Orbit: 467 x 1257 km, 28.8° (Epoch: 25 February)

Event Time Altitude Azimuth Distance (km) Brightness Sun altitude
Rises 19:42:58 0° 229° (SW) 2,957 10.2 -28.7°
Reaches altitude 10° 19:45:40 10° 213° (SSW) 2,178 9.2 -29.2°
Enters shadow 19:47:47 18° 189° (S) 1,795 8.4 -29.6°
